JZA823 CYUL-KDCA

Flight info

Callsign JZA823
Flight time 1h 21m
Altitude 38000
Route FAWNS DCT BUGSY DCT PONCT DCT BIZEX Q75 MXE CLIPR3
Aircraft CRJ9/M-SDFGIRWY/S

Departure

Time 2026-04-25 22:04
Airport Montreal / Pierre Elliott Trudeau International Airport (CYUL)

Arrival

Time 2026-04-25 23:25
Airport Ronald Reagan Washington National Airport (KDCA)
Time Latitude Longitude Altitude Speed Heading
2026-04-25 21:38 45.45580 -73.75583 103 ft 0 kts 154°
2026-04-25 21:52 45.45583 -73.75585 103 ft 4 kts 137°
2026-04-25 21:53 45.45593 -73.75592 103 ft 4 kts 157°
2026-04-25 21:53 45.45617 -73.75596 103 ft 4 kts 198°
2026-04-25 21:53 45.45634 -73.75574 103 ft 4 kts 245°
2026-04-25 21:53 45.45638 -73.75559 103 ft 1 kts 255°
2026-04-25 21:55 45.45638 -73.75560 103 ft 0 kts 255°
2026-04-25 21:55 45.45636 -73.75567 103 ft 2 kts 255°
2026-04-25 21:55 45.45631 -73.75593 103 ft 4 kts 255°
2026-04-25 21:56 45.45623 -73.75640 103 ft 6 kts 257°
2026-04-25 21:56 45.45619 -73.75682 103 ft 7 kts 270°
2026-04-25 21:56 45.45632 -73.75778 103 ft 9 kts 306°
2026-04-25 21:56 45.45676 -73.75858 103 ft 12 kts 308°
2026-04-25 21:57 45.45733 -73.75962 103 ft 15 kts 307°
2026-04-25 21:57 45.45822 -73.76035 103 ft 16 kts 348°
2026-04-25 21:57 45.45933 -73.76057 102 ft 16 kts 358°
2026-04-25 21:57 45.46047 -73.76063 103 ft 17 kts 358°
2026-04-25 21:58 45.46120 -73.76017 100 ft 12 kts 82°
2026-04-25 21:58 45.46125 -73.75896 100 ft 12 kts 88°
2026-04-25 21:58 45.46129 -73.75769 100 ft 13 kts 88°
2026-04-25 21:58 45.46133 -73.75636 100 ft 14 kts 88°
2026-04-25 21:59 45.46137 -73.75497 100 ft 14 kts 88°
2026-04-25 21:59 45.46141 -73.75350 99 ft 15 kts 88°
2026-04-25 21:59 45.46146 -73.75197 100 ft 15 kts 88°
2026-04-25 22:00 45.46155 -73.74910 102 ft 14 kts 88°
2026-04-25 22:00 45.46159 -73.74765 102 ft 15 kts 88°
2026-04-25 22:00 45.46161 -73.74611 101 ft 16 kts 99°
2026-04-25 22:00 45.46091 -73.74499 102 ft 16 kts 141°
2026-04-25 22:01 45.46008 -73.74392 101 ft 16 kts 133°
2026-04-25 22:01 45.45921 -73.74288 101 ft 17 kts 155°
2026-04-25 22:01 45.45889 -73.74262 101 ft 3 kts 144°
2026-04-25 22:01 45.45877 -73.74249 101 ft 3 kts 138°
2026-04-25 22:02 45.45844 -73.74201 102 ft 7 kts 133°
2026-04-25 22:02 45.45801 -73.74136 102 ft 9 kts 130°
2026-04-25 22:02 45.45801 -73.74096 102 ft 5 kts 45°
2026-04-25 22:02 45.45807 -73.74088 102 ft 0 kts 42°
2026-04-25 22:03 45.45844 -73.74040 102 ft 29 kts 42°
2026-04-25 22:03 45.46153 -73.73634 108 ft 91 kts 43°
2026-04-25 22:03 45.46748 -73.72856 111 ft 139 kts 43°
2026-04-25 22:04 45.47525 -73.71834 355 ft 157 kts 42°
2026-04-25 22:04 45.48339 -73.70772 912 ft 160 kts 43°
2026-04-25 22:04 45.49171 -73.69676 1438 ft 169 kts 44°
2026-04-25 22:04 45.49968 -73.68338 1903 ft 184 kts 63°
2026-04-25 22:05 45.50236 -73.66538 2463 ft 200 kts 92°
2026-04-25 22:05 45.49829 -73.64456 2756 ft 236 kts 116°
2026-04-25 22:05 45.48669 -73.62623 3278 ft 261 kts 146°
2026-04-25 22:05 45.46943 -73.61805 4181 ft 270 kts 175°
2026-04-25 22:06 45.45122 -73.62334 5159 ft 271 kts 205°
2026-04-25 22:06 45.43533 -73.63833 6071 ft 275 kts 214°
2026-04-25 22:06 45.41954 -73.65414 6930 ft 279 kts 214°
2026-04-25 22:06 45.40355 -73.67018 7781 ft 283 kts 214°
2026-04-25 22:07 45.38731 -73.68639 8621 ft 287 kts 214°
2026-04-25 22:07 45.37642 -73.69728 9173 ft 290 kts 215°
2026-04-25 22:07 45.35430 -73.71999 10174 ft 301 kts 216°
2026-04-25 22:07 45.33681 -73.73801 10552 ft 320 kts 216°
2026-04-25 22:08 45.31823 -73.75719 10959 ft 339 kts 216°
2026-04-25 22:08 45.29897 -73.77705 11677 ft 344 kts 216°
2026-04-25 22:08 45.28610 -73.79028 12216 ft 346 kts 216°
2026-04-25 22:08 45.26654 -73.81042 13010 ft 350 kts 216°
2026-04-25 22:09 45.24668 -73.83083 13752 ft 354 kts 217°
2026-04-25 22:09 45.22013 -73.85814 14720 ft 359 kts 217°
2026-04-25 22:09 45.19979 -73.87898 15427 ft 362 kts 217°
2026-04-25 22:09 45.17926 -73.90005 16106 ft 366 kts 217°
2026-04-25 22:10 45.16524 -73.91440 16555 ft 369 kts 217°
2026-04-25 22:10 45.14437 -73.93575 17204 ft 372 kts 217°
2026-04-25 22:10 45.12333 -73.95727 17827 ft 376 kts 217°
2026-04-25 22:10 45.10197 -73.97910 18439 ft 379 kts 218°
2026-04-25 22:11 45.08051 -74.00103 19014 ft 383 kts 218°
2026-04-25 22:11 45.05880 -74.02311 19596 ft 385 kts 219°
2026-04-25 22:11 45.03725 -74.04509 20152 ft 388 kts 219°
2026-04-25 22:11 45.01527 -74.06752 20676 ft 392 kts 219°
2026-04-25 22:12 44.99258 -74.08897 21162 ft 399 kts 210°
2026-04-25 22:12 44.96557 -74.10008 21666 ft 409 kts 191°
2026-04-25 22:12 44.93704 -74.10395 22131 ft 415 kts 187°
2026-04-25 22:12 44.91753 -74.10597 22445 ft 417 kts 188°
2026-04-25 22:13 44.87918 -74.11097 23008 ft 421 kts 191°
2026-04-25 22:13 44.84997 -74.11652 23466 ft 423 kts 192°
2026-04-25 22:13 44.82090 -74.12249 23889 ft 426 kts 192°
2026-04-25 22:13 44.79127 -74.12812 24311 ft 429 kts 192°
2026-04-25 22:14 44.76158 -74.13373 24745 ft 431 kts 192°
2026-04-25 22:14 44.73171 -74.13899 25109 ft 436 kts 189°
2026-04-25 22:14 44.70120 -74.13915 25537 ft 442 kts 181°
2026-04-25 22:14 44.67044 -74.13477 25908 ft 447 kts 177°
2026-04-25 22:15 44.63960 -74.12838 26255 ft 450 kts 176°
2026-04-25 22:15 44.60860 -74.12175 26609 ft 451 kts 177°
2026-04-25 22:15 44.57744 -74.11598 26946 ft 452 kts 178°
2026-04-25 22:16 44.51469 -74.10558 27577 ft 456 kts 178°
2026-04-25 22:16 44.48306 -74.10018 27868 ft 458 kts 179°
2026-04-25 22:16 44.45140 -74.09476 28156 ft 460 kts 179°
2026-04-25 22:16 44.41960 -74.08936 28459 ft 461 kts 179°
2026-04-25 22:17 44.38767 -74.08396 28709 ft 463 kts 179°
2026-04-25 22:17 44.35558 -74.07852 28978 ft 465 kts 179°
2026-04-25 22:17 44.32346 -74.07309 29247 ft 466 kts 179°
2026-04-25 22:17 44.29115 -74.06763 29498 ft 468 kts 179°
2026-04-25 22:18 44.25878 -74.06213 29706 ft 470 kts 179°
2026-04-25 22:18 44.22677 -74.05677 29944 ft 470 kts 179°
2026-04-25 22:18 44.19378 -74.05120 30168 ft 472 kts 179°
2026-04-25 22:18 44.16113 -74.04571 30398 ft 473 kts 179°
2026-04-25 22:19 44.12837 -74.04018 30627 ft 474 kts 179°
2026-04-25 22:19 44.09602 -74.03474 30808 ft 476 kts 180°
2026-04-25 22:19 44.06307 -74.02926 30997 ft 478 kts 179°
2026-04-25 22:19 44.03010 -74.02369 31207 ft 478 kts 180°
2026-04-25 22:20 43.99704 -74.01812 31404 ft 479 kts 180°
2026-04-25 22:20 43.96389 -74.01260 31577 ft 481 kts 179°
2026-04-25 22:20 43.93064 -74.00707 31711 ft 482 kts 180°
2026-04-25 22:20 43.89719 -74.00143 31950 ft 479 kts 180°
2026-04-25 22:21 43.86451 -73.99595 32667 ft 467 kts 180°
2026-04-25 22:21 43.83268 -73.99065 33290 ft 457 kts 180°
2026-04-25 22:21 43.80141 -73.98546 33860 ft 447 kts 180°
2026-04-25 22:21 43.77073 -73.98036 34281 ft 442 kts 181°
2026-04-25 22:22 43.74022 -73.97530 34497 ft 441 kts 180°
2026-04-25 22:22 43.70973 -73.97031 34644 ft 442 kts 180°
2026-04-25 22:22 43.67923 -73.96523 34860 ft 441 kts 180°
2026-04-25 22:22 43.64870 -73.96018 35007 ft 442 kts 180°
2026-04-25 22:23 43.61820 -73.95514 35204 ft 441 kts 180°
2026-04-25 22:23 43.58771 -73.95009 35407 ft 441 kts 180°
2026-04-25 22:23 43.55729 -73.94508 35544 ft 441 kts 180°
2026-04-25 22:23 43.52676 -73.94007 35724 ft 441 kts 180°
2026-04-25 22:24 43.49634 -73.93503 35865 ft 441 kts 180°
2026-04-25 22:24 43.46590 -73.92999 36039 ft 441 kts 180°
2026-04-25 22:24 43.43549 -73.92501 36204 ft 441 kts 180°
2026-04-25 22:24 43.40561 -73.92011 36375 ft 440 kts 180°
2026-04-25 22:25 43.37512 -73.91509 36507 ft 441 kts 180°
2026-04-25 22:25 43.34435 -73.91006 36672 ft 440 kts 180°
2026-04-25 22:25 43.31387 -73.90508 36891 ft 438 kts 180°
2026-04-25 22:25 43.28406 -73.90028 37074 ft 436 kts 180°
2026-04-25 22:26 43.25355 -73.89530 37276 ft 434 kts 180°
2026-04-25 22:26 43.22360 -73.89035 37433 ft 432 kts 180°
2026-04-25 22:26 43.19416 -73.88567 37530 ft 432 kts 180°
2026-04-25 22:27 43.13456 -73.87590 37714 ft 432 kts 180°
2026-04-25 22:27 43.07469 -73.86615 37897 ft 432 kts 180°
2026-04-25 22:28 43.01476 -73.85642 38032 ft 434 kts 180°
2026-04-25 22:28 42.95474 -73.84678 38058 ft 438 kts 179°
2026-04-25 22:29 42.89419 -73.83693 38071 ft 442 kts 179°
2026-04-25 22:29 42.83228 -73.82686 38077 ft 447 kts 179°
2026-04-25 22:30 42.73889 -73.81182 38078 ft 454 kts 179°
2026-04-25 22:30 42.68662 -73.80331 38078 ft 457 kts 179°
2026-04-25 22:31 42.61244 -73.79124 38080 ft 462 kts 179°
2026-04-25 22:31 42.54839 -73.78087 38071 ft 465 kts 179°
2026-04-25 22:32 42.48423 -73.77049 38066 ft 469 kts 179°
2026-04-25 22:32 42.41923 -73.76002 38071 ft 472 kts 179°
2026-04-25 22:33 42.35380 -73.74948 38066 ft 474 kts 179°
2026-04-25 22:33 42.28813 -73.73894 38062 ft 476 kts 179°
2026-04-25 22:34 42.22225 -73.72835 38066 ft 478 kts 180°
2026-04-25 22:34 42.15634 -73.71783 38068 ft 475 kts 179°
2026-04-25 22:35 42.09094 -73.70738 38062 ft 471 kts 179°
2026-04-25 22:35 42.02612 -73.69705 38065 ft 468 kts 180°
2026-04-25 22:36 41.96206 -73.68686 38074 ft 464 kts 180°
2026-04-25 22:36 41.89813 -73.67680 38085 ft 464 kts 180°
2026-04-25 22:37 41.83392 -73.66659 38078 ft 463 kts 180°
2026-04-25 22:37 41.76955 -73.65641 38083 ft 462 kts 180°
2026-04-25 22:38 41.70571 -73.64635 38086 ft 461 kts 180°
2026-04-25 22:38 41.64198 -73.63632 38085 ft 461 kts 180°
2026-04-25 22:39 41.57868 -73.62641 38085 ft 461 kts 180°
2026-04-25 22:39 41.51499 -73.61642 38082 ft 461 kts 180°
2026-04-25 22:40 41.45130 -73.60645 38092 ft 461 kts 180°
2026-04-25 22:40 41.38768 -73.59730 38090 ft 455 kts 186°
2026-04-25 22:41 41.35672 -73.60088 38103 ft 441 kts 200°
2026-04-25 22:41 41.32807 -73.61357 38115 ft 428 kts 212°
2026-04-25 22:41 41.27640 -73.65145 38114 ft 422 kts 218°
2026-04-25 22:42 41.22672 -73.69289 38098 ft 421 kts 220°
2026-04-25 22:42 41.18043 -73.73920 38092 ft 408 kts 235°
2026-04-25 22:43 41.14762 -73.79960 38083 ft 403 kts 241°
2026-04-25 22:43 41.11535 -73.86047 38076 ft 405 kts 239°
2026-04-25 22:44 41.08028 -73.91913 38070 ft 406 kts 237°
2026-04-25 22:44 41.04492 -73.97744 38080 ft 406 kts 237°
2026-04-25 22:45 41.00991 -74.03607 38078 ft 405 kts 237°
2026-04-25 22:45 40.97490 -74.09466 38080 ft 406 kts 237°
2026-04-25 22:46 40.93977 -74.15310 38079 ft 406 kts 237°
2026-04-25 22:46 40.90462 -74.21158 38076 ft 406 kts 237°
2026-04-25 22:47 40.86946 -74.27005 38082 ft 406 kts 237°
2026-04-25 22:47 40.83418 -74.32845 38078 ft 406 kts 237°
2026-04-25 22:48 40.79893 -74.38674 38081 ft 406 kts 237°
2026-04-25 22:48 40.76363 -74.44506 38085 ft 406 kts 237°
2026-04-25 22:49 40.72841 -74.50313 38082 ft 406 kts 237°
2026-04-25 22:49 40.69299 -74.56141 38076 ft 407 kts 237°
2026-04-25 22:50 40.65776 -74.61922 38063 ft 408 kts 237°
2026-04-25 22:50 40.62226 -74.67742 38058 ft 408 kts 237°
2026-04-25 22:51 40.58665 -74.73555 38053 ft 408 kts 236°
2026-04-25 22:51 40.54871 -74.79149 38046 ft 411 kts 232°
2026-04-25 22:52 40.50939 -74.84607 38040 ft 411 kts 232°
2026-04-25 22:52 40.47652 -74.89205 38035 ft 411 kts 233°
2026-04-25 22:53 40.43130 -74.95607 38028 ft 411 kts 233°
2026-04-25 22:53 40.39647 -75.00508 38025 ft 411 kts 233°
2026-04-25 22:54 40.35954 -75.05689 38028 ft 411 kts 233°
2026-04-25 22:54 40.32055 -75.11168 38018 ft 411 kts 233°
2026-04-25 22:55 40.28144 -75.16646 37642 ft 412 kts 233°
2026-04-25 22:55 40.26185 -75.19390 37275 ft 413 kts 232°
2026-04-25 22:55 40.24882 -75.21211 36973 ft 415 kts 232°
2026-04-25 22:56 40.22909 -75.23961 36485 ft 415 kts 232°
2026-04-25 22:56 40.20934 -75.26716 35995 ft 415 kts 232°
2026-04-25 22:56 40.18959 -75.29469 35486 ft 414 kts 232°
2026-04-25 22:56 40.16989 -75.32215 34903 ft 414 kts 232°
2026-04-25 22:57 40.15015 -75.34963 34308 ft 415 kts 231°
2026-04-25 22:57 40.13036 -75.37711 33717 ft 415 kts 231°
2026-04-25 22:57 40.11053 -75.40461 33128 ft 415 kts 231°
2026-04-25 22:57 40.09078 -75.43205 32533 ft 415 kts 231°
2026-04-25 22:58 40.07103 -75.45948 31937 ft 414 kts 231°
2026-04-25 22:58 40.05126 -75.48685 31349 ft 414 kts 230°
2026-04-25 22:58 40.03147 -75.51419 30755 ft 414 kts 230°
2026-04-25 22:58 40.01170 -75.54150 30161 ft 414 kts 230°
2026-04-25 22:59 39.99522 -75.56431 29665 ft 415 kts 230°
2026-04-25 22:59 39.97539 -75.59171 29063 ft 416 kts 230°
2026-04-25 22:59 39.95575 -75.61875 28470 ft 417 kts 230°
2026-04-25 22:59 39.93583 -75.64627 27871 ft 418 kts 230°
2026-04-25 23:00 39.91627 -75.67436 27268 ft 418 kts 234°
2026-04-25 23:00 39.89886 -75.70459 26665 ft 418 kts 238°
2026-04-25 23:00 39.88290 -75.73621 26079 ft 418 kts 240°
2026-04-25 23:00 39.86719 -75.76821 25480 ft 420 kts 240°
2026-04-25 23:01 39.85112 -75.80019 24884 ft 423 kts 239°
2026-04-25 23:01 39.83458 -75.83189 24285 ft 425 kts 238°
2026-04-25 23:01 39.81798 -75.86371 23691 ft 423 kts 238°
2026-04-25 23:01 39.80171 -75.89473 23091 ft 408 kts 238°
2026-04-25 23:02 39.78600 -75.92475 22483 ft 396 kts 238°
2026-04-25 23:02 39.77076 -75.95396 21875 ft 385 kts 239°
2026-04-25 23:02 39.75578 -75.98244 21261 ft 377 kts 238°
2026-04-25 23:02 39.74355 -76.00560 20755 ft 370 kts 238°
2026-04-25 23:03 39.72904 -76.03290 20151 ft 364 kts 238°
2026-04-25 23:03 39.71475 -76.05962 19549 ft 357 kts 238°
2026-04-25 23:03 39.70076 -76.08599 18942 ft 352 kts 239°
2026-04-25 23:03 39.68708 -76.11199 18340 ft 346 kts 239°
2026-04-25 23:04 39.67358 -76.13770 17744 ft 342 kts 239°
2026-04-25 23:04 39.66027 -76.16303 17152 ft 338 kts 239°
2026-04-25 23:04 39.64708 -76.18808 16539 ft 334 kts 239°
2026-04-25 23:04 39.63400 -76.21288 15943 ft 332 kts 239°
2026-04-25 23:05 39.62104 -76.23740 15340 ft 328 kts 238°
2026-04-25 23:05 39.60824 -76.26166 14728 ft 324 kts 238°
2026-04-25 23:05 39.59560 -76.28570 14121 ft 321 kts 237°
2026-04-25 23:05 39.58032 -76.30679 13511 ft 323 kts 223°
2026-04-25 23:06 39.56233 -76.32422 12913 ft 322 kts 218°
2026-04-25 23:06 39.54371 -76.34017 12428 ft 317 kts 217°
2026-04-25 23:06 39.52559 -76.35540 12206 ft 304 kts 217°
2026-04-25 23:06 39.50824 -76.36982 12101 ft 290 kts 216°
2026-04-25 23:07 39.49170 -76.38360 12036 ft 276 kts 217°
2026-04-25 23:07 39.47576 -76.39723 12017 ft 274 kts 218°
2026-04-25 23:07 39.46018 -76.41075 12017 ft 273 kts 218°
2026-04-25 23:07 39.44418 -76.42451 11937 ft 274 kts 218°
2026-04-25 23:08 39.42837 -76.43830 11816 ft 274 kts 218°
2026-04-25 23:08 39.41259 -76.45201 11686 ft 272 kts 218°
2026-04-25 23:08 39.39691 -76.46565 11570 ft 272 kts 217°
2026-04-25 23:08 39.38116 -76.47931 11445 ft 272 kts 217°
2026-04-25 23:09 39.36539 -76.49294 11315 ft 273 kts 217°
2026-04-25 23:09 39.34962 -76.50658 11191 ft 273 kts 217°
2026-04-25 23:09 39.33385 -76.52021 11070 ft 272 kts 217°
2026-04-25 23:09 39.31812 -76.53386 10945 ft 272 kts 216°
2026-04-25 23:10 39.30241 -76.54742 10818 ft 272 kts 217°
2026-04-25 23:10 39.28671 -76.56097 10695 ft 271 kts 216°
2026-04-25 23:10 39.27120 -76.57433 10571 ft 271 kts 216°
2026-04-25 23:10 39.25534 -76.58802 10449 ft 270 kts 216°
2026-04-25 23:11 39.23973 -76.60150 10319 ft 270 kts 216°
2026-04-25 23:11 39.22434 -76.61484 10194 ft 270 kts 216°
2026-04-25 23:11 39.20885 -76.62821 10106 ft 267 kts 216°
2026-04-25 23:11 39.19351 -76.64158 10060 ft 264 kts 216°
2026-04-25 23:12 39.17808 -76.65506 9805 ft 264 kts 216°
2026-04-25 23:12 39.16344 -76.66903 9547 ft 261 kts 221°
2026-04-25 23:12 39.15014 -76.68423 9295 ft 257 kts 223°
2026-04-25 23:12 39.13726 -76.70008 9045 ft 255 kts 224°
2026-04-25 23:13 39.12455 -76.71585 8792 ft 253 kts 224°
2026-04-25 23:13 39.11193 -76.73152 8540 ft 251 kts 223°
2026-04-25 23:13 39.09929 -76.74684 8289 ft 249 kts 223°
2026-04-25 23:13 39.08656 -76.76187 8036 ft 248 kts 222°
2026-04-25 23:14 39.07390 -76.77687 7780 ft 248 kts 222°
2026-04-25 23:14 39.06118 -76.79191 7541 ft 249 kts 222°
2026-04-25 23:14 39.04829 -76.80715 7299 ft 254 kts 221°
2026-04-25 23:14 39.03518 -76.82279 7057 ft 259 kts 221°
2026-04-25 23:15 39.02184 -76.83863 6820 ft 263 kts 221°
2026-04-25 23:15 39.00854 -76.85438 6573 ft 256 kts 221°
2026-04-25 23:15 38.99764 -76.86728 6361 ft 253 kts 221°
2026-04-25 23:15 38.98479 -76.88245 6167 ft 248 kts 221°
2026-04-25 23:16 38.97527 -76.90047 6062 ft 247 kts 252°
2026-04-25 23:16 38.97326 -76.92248 5913 ft 254 kts 263°
2026-04-25 23:16 38.97286 -76.94581 5674 ft 266 kts 267°
2026-04-25 23:16 38.97352 -76.96952 5443 ft 266 kts 269°
2026-04-25 23:17 38.97448 -76.99324 5198 ft 267 kts 269°
2026-04-25 23:17 38.97542 -77.01318 4951 ft 269 kts 273°
2026-04-25 23:17 38.98162 -77.03512 4582 ft 275 kts 304°
2026-04-25 23:17 38.99459 -77.05327 4232 ft 276 kts 316°
2026-04-25 23:18 39.00647 -77.06714 3916 ft 277 kts 319°
2026-04-25 23:18 39.02101 -77.08362 3528 ft 279 kts 319°
2026-04-25 23:18 39.03531 -77.09991 3234 ft 274 kts 321°
2026-04-25 23:18 39.04946 -77.11614 3083 ft 264 kts 308°
2026-04-25 23:19 39.05580 -77.13710 2986 ft 248 kts 270°
2026-04-25 23:19 39.05187 -77.15768 2851 ft 238 kts 232°
2026-04-25 23:19 39.04001 -77.17165 2789 ft 229 kts 207°
2026-04-25 23:19 39.02514 -77.17804 2775 ft 227 kts 180°
2026-04-25 23:20 39.00943 -77.17810 2764 ft 223 kts 161°
2026-04-25 23:20 38.99803 -77.17279 2778 ft 217 kts 153°
2026-04-25 23:20 38.98428 -77.16528 2748 ft 210 kts 153°
2026-04-25 23:20 38.97156 -77.15822 2825 ft 188 kts 151°
2026-04-25 23:21 38.96107 -77.14963 2770 ft 172 kts 139°
2026-04-25 23:21 38.95211 -77.14026 2600 ft 160 kts 135°
2026-04-25 23:21 38.94413 -77.13126 2368 ft 146 kts 134°
2026-04-25 23:21 38.93683 -77.12295 2164 ft 133 kts 135°
2026-04-25 23:22 38.92944 -77.11650 1896 ft 129 kts 145°
2026-04-25 23:22 38.92158 -77.11080 1648 ft 129 kts 146°
2026-04-25 23:22 38.91406 -77.10445 1405 ft 135 kts 137°
2026-04-25 23:23 38.90342 -77.08460 1089 ft 133 kts 117°
2026-04-25 23:23 38.89853 -77.07432 942 ft 136 kts 122°
2026-04-25 23:23 38.89312 -77.06440 840 ft 134 kts 123°
2026-04-25 23:23 38.88720 -77.05507 731 ft 136 kts 128°
2026-04-25 23:24 38.88090 -77.04643 526 ft 129 kts 136°
2026-04-25 23:24 38.87320 -77.04021 336 ft 136 kts 161°
2026-04-25 23:24 38.86361 -77.03897 138 ft 139 kts 174°
2026-04-25 23:24 38.85429 -77.03803 25 ft 120 kts 174°
2026-04-25 23:25 38.84819 -77.03746 22 ft 52 kts 175°
2026-04-25 23:25 38.84507 -77.03714 22 ft 30 kts 176°
2026-04-25 23:25 38.84392 -77.03804 23 ft 17 kts 276°
2026-04-25 23:25 38.84458 -77.03846 23 ft 14 kts 355°
2026-04-25 23:26 38.84579 -77.03859 23 ft 21 kts 355°
2026-04-25 23:26 38.84734 -77.03874 23 ft 14 kts 355°
2026-04-25 23:26 38.84748 -77.03877 22 ft 2 kts 325°
2026-04-25 23:26 38.84758 -77.03911 24 ft 2 kts 268°
2026-04-25 23:27 38.84757 -77.03916 22 ft 0 kts 268°
2026-04-25 23:27 38.84746 -77.03915 25 ft 0 kts 268°
2026-04-25 23:29 38.84746 -77.03921 22 ft 4 kts 269°
2026-04-25 23:29 38.84716 -77.03986 22 ft 13 kts 213°
2026-04-25 23:29 38.84634 -77.04039 22 ft 13 kts 209°
2026-04-25 23:29 38.84586 -77.04133 22 ft 13 kts 257°
2026-04-25 23:30 38.84567 -77.04247 23 ft 13 kts 258°
2026-04-25 23:30 38.84587 -77.04353 22 ft 13 kts 316°
2026-04-25 23:30 38.84653 -77.04424 25 ft 11 kts 332°
2026-04-25 23:30 38.84684 -77.04402 22 ft 5 kts 79°
2026-04-25 23:31 38.84683 -77.04359 22 ft 5 kts 95°
2026-04-25 23:31 38.84683 -77.04350 22 ft 1 kts 95°